N9522S S43-KSFF

Flight info

Callsign N9522S
Flight time N/A
Altitude 9000
Route S43 VAMPS V2 MWHZOOMR2 KSFF
Aircraft C172/L-V/N

Departure

Time 2026-05-08 02:06
Airport Harvey Field (S43)

Arrival

Time N/A
Airport Felts Field (KSFF)
Time Latitude Longitude Altitude Speed Heading
2026-05-08 01:59 47.90741 -122.10259 22 ft 0 kts 334°
2026-05-08 02:04 47.90789 -122.10296 22 ft 15 kts 329°
2026-05-08 02:05 47.90819 -122.10358 21 ft 4 kts 220°
2026-05-08 02:05 47.90700 -122.10321 21 ft 42 kts 171°
2026-05-08 02:05 47.90284 -122.10176 101 ft 70 kts 165°
2026-05-08 02:05 47.89794 -122.09991 307 ft 74 kts 166°
2026-05-08 02:06 47.89286 -122.09812 524 ft 76 kts 172°
2026-05-08 02:06 47.88756 -122.09728 772 ft 75 kts 174°
2026-05-08 02:06 47.88191 -122.09570 906 ft 88 kts 171°
2026-05-08 02:06 47.87596 -122.09456 1163 ft 87 kts 174°
2026-05-08 02:07 47.86988 -122.09361 1402 ft 86 kts 175°
2026-05-08 02:07 47.86416 -122.09264 1669 ft 78 kts 175°
2026-05-08 02:07 47.85868 -122.09182 1863 ft 81 kts 174°
2026-05-08 02:07 47.85301 -122.09057 2063 ft 82 kts 171°
2026-05-08 02:08 47.84736 -122.08969 2276 ft 84 kts 176°
2026-05-08 02:08 47.84145 -122.08898 2514 ft 84 kts 173°
2026-05-08 02:08 47.83571 -122.08750 2703 ft 87 kts 168°
2026-05-08 02:08 47.82983 -122.08595 2927 ft 83 kts 173°
2026-05-08 02:09 47.82409 -122.08504 3141 ft 83 kts 172°
2026-05-08 02:09 47.81824 -122.08330 3331 ft 85 kts 170°
2026-05-08 02:09 47.81246 -122.08154 3511 ft 88 kts 166°
2026-05-08 02:09 47.80666 -122.07922 3726 ft 85 kts 173°
2026-05-08 02:10 47.80081 -122.07778 3917 ft 85 kts 166°
2026-05-08 02:10 47.79496 -122.07658 4115 ft 84 kts 173°
2026-05-08 02:10 47.78912 -122.07551 4290 ft 86 kts 171°
2026-05-08 02:10 47.78322 -122.07340 4487 ft 87 kts 159°
2026-05-08 02:11 47.77756 -122.07108 4687 ft 86 kts 170°
2026-05-08 02:11 47.77154 -122.07040 4877 ft 84 kts 178°
2026-05-08 02:11 47.76561 -122.06996 5028 ft 87 kts 181°
2026-05-08 02:11 47.75981 -122.06975 5229 ft 85 kts 173°
2026-05-08 02:12 47.75377 -122.06851 5394 ft 86 kts 172°
2026-05-08 02:12 47.74814 -122.06625 5565 ft 87 kts 163°
2026-05-08 02:12 47.74220 -122.06413 5740 ft 85 kts 167°
2026-05-08 02:12 47.73628 -122.06253 5897 ft 89 kts 169°
2026-05-08 02:13 47.73030 -122.06093 6101 ft 85 kts 173°
2026-05-08 02:13 47.72432 -122.05982 6271 ft 90 kts 169°
2026-05-08 02:13 47.71836 -122.05812 6477 ft 87 kts 172°
2026-05-08 02:13 47.71286 -122.05660 6618 ft 88 kts 169°
2026-05-08 02:14 47.70675 -122.05550 6766 ft 88 kts 176°
2026-05-08 02:14 47.70060 -122.05522 6908 ft 89 kts 188°
2026-05-08 02:14 47.69444 -122.05644 7047 ft 89 kts 182°
2026-05-08 02:14 47.68838 -122.05489 7194 ft 91 kts 159°
2026-05-08 02:15 47.68311 -122.05003 7285 ft 95 kts 166°
2026-05-08 02:15 47.67692 -122.04982 7498 ft 86 kts 176°
2026-05-08 02:15 47.67064 -122.04852 7598 ft 91 kts 168°
2026-05-08 02:15 47.66461 -122.04626 7763 ft 91 kts 165°
2026-05-08 02:16 47.65857 -122.04389 7893 ft 91 kts 173°
2026-05-08 02:16 47.65228 -122.04356 8046 ft 89 kts 175°
2026-05-08 02:16 47.64604 -122.04258 8169 ft 92 kts 171°
2026-05-08 02:16 47.63989 -122.04070 8335 ft 90 kts 165°
2026-05-08 02:17 47.63382 -122.03776 8412 ft 95 kts 171°
2026-05-08 02:17 47.62753 -122.03611 8602 ft 88 kts 168°
2026-05-08 02:17 47.62120 -122.03435 8679 ft 95 kts 173°
2026-05-08 02:17 47.61491 -122.03335 8860 ft 91 kts 176°
2026-05-08 02:18 47.60843 -122.03244 8903 ft 96 kts 174°
2026-05-08 02:18 47.60151 -122.03129 8944 ft 104 kts 175°
2026-05-08 02:18 47.59391 -122.03017 8953 ft 113 kts 176°
2026-05-08 02:18 47.58583 -122.02977 8963 ft 118 kts 179°
2026-05-08 02:19 47.57750 -122.02885 8958 ft 123 kts 172°
2026-05-08 02:19 47.56897 -122.02668 8947 ft 126 kts 171°
2026-05-08 02:19 47.56036 -122.02420 8928 ft 128 kts 169°
2026-05-08 02:19 47.55160 -122.02144 8906 ft 129 kts 169°
2026-05-08 02:20 47.54280 -122.01899 8911 ft 127 kts 173°
2026-05-08 02:20 47.53406 -122.01736 8934 ft 126 kts 174°
2026-05-08 02:20 47.52534 -122.01553 8933 ft 127 kts 172°
2026-05-08 02:20 47.51660 -122.01372 8939 ft 126 kts 172°
2026-05-08 02:21 47.50788 -122.01167 8962 ft 126 kts 172°
2026-05-08 02:21 47.49912 -122.00918 8920 ft 129 kts 168°
2026-05-08 02:21 47.49044 -122.00742 8929 ft 128 kts 175°
2026-05-08 02:21 47.48157 -122.00619 8959 ft 125 kts 173°
2026-05-08 02:22 47.47297 -122.00478 8941 ft 127 kts 174°
2026-05-08 02:22 47.46422 -122.00278 8948 ft 127 kts 170°
2026-05-08 02:22 47.45564 -121.99981 8949 ft 127 kts 164°
2026-05-08 02:22 47.44736 -121.99525 8968 ft 126 kts 156°
2026-05-08 02:23 47.43874 -121.99246 8915 ft 127 kts 177°
2026-05-08 02:23 47.43003 -121.99253 8929 ft 126 kts 182°
2026-05-08 02:23 47.42121 -121.99309 8914 ft 126 kts 181°
2026-05-08 02:23 47.41257 -121.99192 8927 ft 124 kts 173°
2026-05-08 02:24 47.40386 -121.99039 8854 ft 129 kts 178°
2026-05-08 02:24 47.39514 -121.98848 8899 ft 124 kts 169°
2026-05-08 02:24 47.38673 -121.98490 8869 ft 128 kts 160°
2026-05-08 02:24 47.37852 -121.98011 8896 ft 126 kts 156°
2026-05-08 02:25 47.37000 -121.97766 8778 ft 130 kts 174°
2026-05-08 02:25 47.36219 -121.97203 8862 ft 125 kts 135°
2026-05-08 02:25 47.35824 -121.96070 8883 ft 125 kts 101°
2026-05-08 02:25 47.35691 -121.94836 8949 ft 122 kts 99°
2026-05-08 02:26 47.35551 -121.93549 8872 ft 129 kts 98°
2026-05-08 02:26 47.35319 -121.92289 8935 ft 125 kts 107°
2026-05-08 02:26 47.35085 -121.91055 8929 ft 128 kts 104°
2026-05-08 02:26 47.34870 -121.89783 8941 ft 126 kts 103°
2026-05-08 02:27 47.34671 -121.88523 8950 ft 127 kts 104°
2026-05-08 02:27 47.34460 -121.87253 8963 ft 127 kts 103°
2026-05-08 02:27 47.34246 -121.85989 8958 ft 128 kts 104°
2026-05-08 02:27 47.34041 -121.84714 8947 ft 127 kts 101°
2026-05-08 02:28 47.33880 -121.83434 8945 ft 128 kts 104°
2026-05-08 02:28 47.33643 -121.82169 8945 ft 127 kts 105°
2026-05-08 02:28 47.33412 -121.80916 8963 ft 127 kts 108°
2026-05-08 02:28 47.33075 -121.79716 8945 ft 127 kts 120°
2026-05-08 02:29 47.32720 -121.78523 8932 ft 128 kts 112°
2026-05-08 02:29 47.32403 -121.77329 8953 ft 126 kts 108°
2026-05-08 02:29 47.32149 -121.76080 8946 ft 128 kts 108°
2026-05-08 02:29 47.31925 -121.74825 8959 ft 126 kts 94°
2026-05-08 02:30 47.31777 -121.73557 8907 ft 129 kts 110°
2026-05-08 02:30 47.31476 -121.72334 8959 ft 125 kts 109°
2026-05-08 02:30 47.31175 -121.71118 8946 ft 126 kts 110°
2026-05-08 02:30 47.30933 -121.69868 8947 ft 127 kts 105°
2026-05-08 02:31 47.30712 -121.68603 8948 ft 130 kts 105°
2026-05-08 02:31 47.30404 -121.67343 8935 ft 131 kts 117°
2026-05-08 02:31 47.30051 -121.66118 8920 ft 131 kts 113°
2026-05-08 02:31 47.29672 -121.64931 8970 ft 126 kts 114°
2026-05-08 02:32 47.29447 -121.63663 8917 ft 130 kts 101°
2026-05-08 02:32 47.29326 -121.62365 8946 ft 127 kts 95°
2026-05-08 02:32 47.29223 -121.61068 8915 ft 128 kts 107°
2026-05-08 02:32 47.28894 -121.59869 8918 ft 126 kts 109°
2026-05-08 02:33 47.28617 -121.58633 8908 ft 127 kts 106°
2026-05-08 02:33 47.28403 -121.57377 8936 ft 126 kts 103°
2026-05-08 02:33 47.28161 -121.56136 8920 ft 127 kts 110°
2026-05-08 02:33 47.27916 -121.54878 8915 ft 128 kts 107°
2026-05-08 02:34 47.27688 -121.53629 8938 ft 126 kts 102°
2026-05-08 02:34 47.27362 -121.52423 8900 ft 128 kts 121°
2026-05-08 02:34 47.27151 -121.51195 8942 ft 124 kts 88°
2026-05-08 02:34 47.26911 -121.50029 9000 ft 121 kts 116°
2026-05-08 02:35 47.26552 -121.48862 8965 ft 126 kts 112°
2026-05-08 02:35 47.26342 -121.47623 8994 ft 125 kts 101°
2026-05-08 02:35 47.26182 -121.46340 8923 ft 131 kts 103°
2026-05-08 02:35 47.25905 -121.45071 8924 ft 128 kts 108°
2026-05-08 02:40 47.25629 -121.43938 8924 ft 127 kts 114°
2026-05-08 02:40 47.25289 -121.42731 8910 ft 128 kts 113°
2026-05-08 02:40 47.24960 -121.41505 8903 ft 128 kts 109°
2026-05-08 02:40 47.24775 -121.40667 8918 ft 127 kts 110°
2026-05-08 02:41 47.24492 -121.39430 8916 ft 128 kts 109°
2026-05-08 02:41 47.24218 -121.38178 8918 ft 128 kts 106°
2026-05-08 02:41 47.24003 -121.36924 8916 ft 128 kts 103°
2026-05-08 02:41 47.23793 -121.35644 8916 ft 128 kts 104°
2026-05-08 02:42 47.23587 -121.34363 8903 ft 129 kts 101°
2026-05-08 02:42 47.23452 -121.33064 8904 ft 128 kts 98°
2026-05-08 02:42 47.23332 -121.31764 8897 ft 128 kts 100°
2026-05-08 02:42 47.23102 -121.30503 8913 ft 126 kts 107°
2026-05-08 02:43 47.22835 -121.29270 8923 ft 126 kts 109°
2026-05-08 02:43 47.22554 -121.28043 8914 ft 127 kts 108°
2026-05-08 02:43 47.22285 -121.26807 8938 ft 126 kts 108°
2026-05-08 02:43 47.22033 -121.25574 8946 ft 126 kts 106°
2026-05-08 02:44 47.21814 -121.24316 8965 ft 127 kts 104°
2026-05-08 02:44 47.21561 -121.23060 8956 ft 127 kts 108°
2026-05-08 02:44 47.21289 -121.21818 8954 ft 127 kts 108°
2026-05-08 02:44 47.21020 -121.20575 8956 ft 127 kts 108°
2026-05-08 02:45 47.20701 -121.19354 8941 ft 127 kts 114°
2026-05-08 02:45 47.20338 -121.18177 8961 ft 127 kts 114°
2026-05-08 02:45 47.20005 -121.16963 8941 ft 128 kts 111°
2026-05-08 02:45 47.19721 -121.15729 8924 ft 129 kts 110°
2026-05-08 02:46 47.19413 -121.14507 8943 ft 126 kts 109°
2026-05-08 02:46 47.19161 -121.13274 8949 ft 127 kts 104°
2026-05-08 02:46 47.18971 -121.12005 8955 ft 127 kts 101°
2026-05-08 02:46 47.18808 -121.10725 8938 ft 129 kts 102°
2026-05-08 02:47 47.18606 -121.09464 8945 ft 128 kts 104°
2026-05-08 02:47 47.18382 -121.08200 8950 ft 127 kts 107°
2026-05-08 02:47 47.18125 -121.06943 8932 ft 129 kts 107°
2026-05-08 02:47 47.17879 -121.05688 8962 ft 127 kts 106°
2026-05-08 02:48 47.17635 -121.04434 8954 ft 128 kts 108°
2026-05-08 02:48 47.17307 -121.03218 8952 ft 128 kts 115°
2026-05-08 02:48 47.16994 -121.01999 8958 ft 128 kts 104°
2026-05-08 02:48 47.16865 -121.00705 8951 ft 128 kts 93°
2026-05-08 02:49 47.16897 -120.99400 8964 ft 128 kts 83°
2026-05-08 02:49 47.17059 -120.98120 8958 ft 128 kts 75°
2026-05-08 02:49 47.17337 -120.96875 8963 ft 128 kts 68°
2026-05-08 02:49 47.17716 -120.95696 8966 ft 128 kts 60°
2026-05-08 02:50 47.18200 -120.94602 8988 ft 127 kts 53°
2026-05-08 02:50 47.18764 -120.93601 8993 ft 127 kts 46°
2026-05-08 02:50 47.19400 -120.92694 8998 ft 127 kts 40°
2026-05-08 02:50 47.20093 -120.91892 9021 ft 127 kts 34°
2026-05-08 02:51 47.20843 -120.91203 9012 ft 127 kts 28°
2026-05-08 02:51 47.21640 -120.90635 9012 ft 127 kts 22°
2026-05-08 02:51 47.22469 -120.90191 8998 ft 127 kts 15°
2026-05-08 02:51 47.23326 -120.89884 9016 ft 127 kts 10°
2026-05-08 02:52 47.24187 -120.89698 9008 ft 126 kts
2026-05-08 02:52 47.25064 -120.89605 9012 ft 126 kts
2026-05-08 02:52 47.25939 -120.89600 9019 ft 126 kts 357°